Time,TemperatureF,DewpointF,PressureIn,WindDirection,WindDirectionDegrees,WindSpeedMPH,WindSpeedGustMPH,Humidity,HourlyPrecipIn,Conditions,Clouds,dailyrainin,SoftwareType,DateUTC
2013-09-05 00:00:00,31.0,29.0,29.77,NE,50,21.0,-999.0,94,-99.99,,,-99.99,,2013-09-05 08:00:00,
2013-09-05 00:42:00,31.0,29.0,29.77,NE,50,21.0,-999.0,94,-99.99,,,-99.99,,2013-09-05 08:42:00,
2013-09-05 00:52:00,31.0,29.0,29.77,NE,50,21.0,-999.0,94,-99.99,,,-99.99,,2013-09-05 08:52:00,
2013-09-05 01:00:00,30.0,28.0,29.80,NE,40,17.0,-999.0,90,-99.99,,,-99.99,,2013-09-05 09:00:00,
2013-09-05 01:43:00,30.0,28.0,29.80,NE,40,17.0,-999.0,90,-99.99,,,-99.99,,2013-09-05 09:43:00,
2013-09-05 01:53:00,30.0,28.0,29.80,NE,40,17.0,-999.0,90,-99.99,,,-99.99,,2013-09-05 09:53:00,
2013-09-05 02:00:00,31.0,29.0,29.80,NE,50,16.0,-999.0,92,-99.99,,,-99.99,,2013-09-05 10:00:00,
2013-09-05 02:42:00,31.0,29.0,29.80,NE,50,16.0,-999.0,92,-99.99,,,-99.99,,2013-09-05 10:42:00,
2013-09-05 02:53:00,31.0,29.0,29.80,NE,50,16.0,-999.0,92,-99.99,,,-99.99,,2013-09-05 10:53:00,
2013-09-05 03:00:00,31.0,28.0,29.80,ENE,60,17.0,-999.0,87,-99.99,,,-99.99,,2013-09-05 11:00:00,
2013-09-05 03:42:00,31.0,28.0,29.80,ENE,60,17.0,-999.0,87,-99.99,,,-99.99,,2013-09-05 11:42:00,
2013-09-05 03:51:00,31.0,28.0,29.80,ENE,60,17.0,-999.0,87,-99.99,,,-99.99,,2013-09-05 11:51:00,
2013-09-05 04:00:00,31.0,28.0,29.79,NE,40,22.0,-999.0,87,-99.99,,,-99.99,,2013-09-05 12:00:00,
2013-09-05 04:41:00,31.0,28.0,29.79,NE,40,22.0,-999.0,87,-99.99,,,-99.99,,2013-09-05 12:41:00,
2013-09-05 04:52:00,31.0,28.0,29.79,NE,40,22.0,-999.0,87,-99.99,,,-99.99,,2013-09-05 12:52:00,
2013-09-05 05:00:00,32.0,29.0,29.79,NE,50,16.0,-999.0,88,-99.99,,,-99.99,,2013-09-05 13:00:00,
2013-09-05 05:42:00,32.0,29.0,29.79,NE,50,16.0,-999.0,88,-99.99,,,-99.99,,2013-09-05 13:42:00,
2013-09-05 05:52:00,32.0,29.0,29.79,NE,50,16.0,-999.0,88,-99.99,,,-99.99,,2013-09-05 13:52:00,
2013-09-05 06:00:00,33.0,30.0,29.79,NE,50,22.0,-999.0,89,-99.99,,,-99.99,,2013-09-05 14:00:00,
2013-09-05 06:42:00,33.0,30.0,29.79,NE,50,22.0,-999.0,89,-99.99,,,-99.99,,2013-09-05 14:42:00,
2013-09-05 06:52:00,33.0,30.0,29.79,NE,50,22.0,-999.0,89,-99.99,,,-99.99,,2013-09-05 14:52:00,
2013-09-05 07:00:00,33.0,30.0,29.78,ENE,60,17.0,-999.0,86,-99.99,,,-99.99,,2013-09-05 15:00:00,
2013-09-05 07:43:00,33.0,30.0,29.78,ENE,60,17.0,-999.0,86,-99.99,,,-99.99,,2013-09-05 15:43:00,
2013-09-05 07:54:00,33.0,30.0,29.78,ENE,60,17.0,-999.0,86,-99.99,,,-99.99,,2013-09-05 15:54:00,
2013-09-05 08:00:00,33.0,29.0,29.79,East,90,18.0,-999.0,84,-99.99,,,-99.99,,2013-09-05 16:00:00,
2013-09-05 08:54:00,33.0,29.0,29.79,East,90,18.0,-999.0,84,-99.99,,,-99.99,,2013-09-05 16:54:00,
2013-09-05 09:00:00,33.0,29.0,29.80,ENE,70,16.0,-999.0,85,-99.99,,,-99.99,,2013-09-05 17:00:00,
2013-09-05 09:43:00,33.0,29.0,29.80,ENE,70,16.0,-999.0,85,-99.99,,,-99.99,,2013-09-05 17:43:00,
2013-09-05 09:52:00,33.0,29.0,29.80,ENE,70,16.0,-999.0,85,-99.99,,,-99.99,,2013-09-05 17:52:00,
2013-09-05 10:00:00,33.0,29.0,29.80,East,100,16.0,-999.0,85,-99.99,,,-99.99,,2013-09-05 18:00:00,
2013-09-05 10:42:00,33.0,29.0,29.80,East,100,16.0,-999.0,85,-99.99,,,-99.99,,2013-09-05 18:42:00,
2013-09-05 10:52:00,33.0,29.0,29.80,East,100,16.0,-999.0,85,-99.99,,,-99.99,,2013-09-05 18:52:00,
2013-09-05 11:00:00,32.0,29.0,29.80,East,90,15.0,-999.0,88,-99.99,,,-99.99,,2013-09-05 19:00:00,
2013-09-05 11:42:00,32.0,29.0,29.80,East,90,15.0,-999.0,88,-99.99,,,-99.99,,2013-09-05 19:42:00,
2013-09-05 11:52:00,32.0,29.0,29.80,East,90,15.0,-999.0,88,-99.99,,,-99.99,,2013-09-05 19:52:00,
2013-09-05 12:00:00,32.0,29.0,29.81,East,80,16.0,-999.0,90,-99.99,,,-99.99,,2013-09-05 20:00:00,
2013-09-05 12:42:00,32.0,29.0,29.81,East,80,16.0,-999.0,90,-99.99,,,-99.99,,2013-09-05 20:42:00,
2013-09-05 12:52:00,32.0,29.0,29.81,East,80,16.0,-999.0,90,-99.99,,,-99.99,,2013-09-05 20:52:00,
2013-09-05 13:00:00,33.0,30.0,29.81,East,80,18.0,-999.0,89,-99.99,,,-99.99,,2013-09-05 21:00:00,
2013-09-05 13:43:00,33.0,30.0,29.81,East,80,18.0,-999.0,89,-99.99,,,-99.99,,2013-09-05 21:43:00,
2013-09-05 13:53:00,33.0,30.0,29.81,East,80,18.0,-999.0,89,-99.99,,,-99.99,,2013-09-05 21:53:00,
2013-09-05 14:00:00,33.0,29.0,29.82,East,80,22.0,-999.0,85,-99.99,,,-99.99,,2013-09-05 22:00:00,
2013-09-05 14:43:00,33.0,29.0,29.82,East,80,22.0,-999.0,85,-99.99,,,-99.99,,2013-09-05 22:43:00,
2013-09-05 14:53:00,33.0,29.0,29.82,East,80,22.0,-999.0,85,-99.99,,,-99.99,,2013-09-05 22:53:00,
2013-09-05 15:00:00,33.0,30.0,29.81,ENE,70,18.0,-999.0,87,-99.99,,,-99.99,,2013-09-05 23:00:00,
2013-09-05 15:42:00,33.0,30.0,29.81,ENE,70,18.0,-999.0,87,-99.99,,,-99.99,,2013-09-05 23:42:00,
2013-09-05 15:53:00,33.0,30.0,29.81,ENE,70,18.0,-999.0,87,-99.99,,,-99.99,,2013-09-05 23:53:00,
2013-09-05 16:00:00,33.0,31.0,29.80,ENE,60,18.0,-999.0,89,-99.99,,,-99.99,,2013-09-06 00:00:00,
2013-09-05 16:42:00,33.0,31.0,29.80,ENE,60,18.0,-999.0,89,-99.99,,,-99.99,,2013-09-06 00:42:00,
2013-09-05 16:52:00,33.0,31.0,29.80,ENE,60,18.0,-999.0,89,-99.99,,,-99.99,,2013-09-06 00:52:00,
2013-09-05 17:00:00,33.0,31.0,29.82,East,80,20.0,-999.0,92,-99.99,,,-99.99,,2013-09-06 01:00:00,
2013-09-05 17:41:00,33.0,31.0,29.82,East,80,20.0,-999.0,92,-99.99,,,-99.99,,2013-09-06 01:41:00,
2013-09-05 17:52:00,33.0,31.0,29.82,East,80,20.0,-999.0,92,-99.99,,,-99.99,,2013-09-06 01:52:00,
2013-09-05 18:00:00,33.0,32.0,29.82,East,90,21.0,-999.0,95,-99.99,,,-99.99,,2013-09-06 02:00:00,
2013-09-05 18:42:00,33.0,32.0,29.82,East,90,21.0,-999.0,95,-99.99,,,-99.99,,2013-09-06 02:42:00,
2013-09-05 18:52:00,33.0,32.0,29.82,East,90,21.0,-999.0,95,-99.99,,,-99.99,,2013-09-06 02:52:00,
2013-09-05 19:00:00,34.0,33.0,29.81,ENE,70,20.0,-999.0,95,-99.99,,,-99.99,,2013-09-06 03:00:00,
2013-09-05 19:44:00,34.0,33.0,29.81,ENE,70,20.0,-999.0,95,-99.99,,,-99.99,,2013-09-06 03:44:00,
2013-09-05 19:55:00,34.0,33.0,29.81,ENE,70,20.0,-999.0,95,-99.99,,,-99.99,,2013-09-06 03:55:00,
2013-09-05 20:00:00,34.0,33.0,29.80,East,80,18.0,-999.0,97,-99.99,,,-99.99,,2013-09-06 04:00:00,
2013-09-05 20:43:00,34.0,33.0,29.80,East,80,18.0,-999.0,97,-99.99,,,-99.99,,2013-09-06 04:43:00,
2013-09-05 20:54:00,34.0,33.0,29.80,East,80,18.0,-999.0,97,-99.99,,,-99.99,,2013-09-06 04:54:00,
2013-09-05 21:00:00,32.0,32.0,29.83,East,90,17.0,-999.0,100,-99.99,,,-99.99,,2013-09-06 05:00:00,
2013-09-05 21:42:00,32.0,32.0,29.83,East,90,17.0,-999.0,100,-99.99,,,-99.99,,2013-09-06 05:42:00,
2013-09-05 21:52:00,32.0,32.0,29.83,East,90,17.0,-999.0,100,-99.99,,,-99.99,,2013-09-06 05:52:00,
2013-09-05 22:00:00,34.0,34.0,29.83,East,90,23.0,-999.0,100,-99.99,,,-99.99,,2013-09-06 06:00:00,
2013-09-05 22:42:00,34.0,34.0,29.83,East,90,23.0,-999.0,100,-99.99,,,-99.99,,2013-09-06 06:42:00,
2013-09-05 22:52:00,34.0,34.0,29.83,East,90,23.0,-999.0,100,-99.99,,,-99.99,,2013-09-06 06:52:00,
2013-09-05 23:00:00,34.0,34.0,29.82,East,80,20.0,-999.0,98,-99.99,,,-99.99,,2013-09-06 07:00:00,
2013-09-05 23:42:00,34.0,34.0,29.82,East,80,20.0,-999.0,98,-99.99,,,-99.99,,2013-09-06 07:42:00,
2013-09-05 23:52:00,34.0,34.0,29.82,East,80,20.0,-999.0,98,-99.99,,,-99.99,,2013-09-06 07:52:00,